SCP
-0 -0 -0 -0 -0 -0 -0 -0 -0 -0 -0 -0 -0 -0 -0 -0 -0 0 0 0 0 0 0 0 0 0 0 0 0 0 0 0
-0 0 0 -0 -0 -0 -0 -0 -0 -0 -0 -0 -0 -0 -0 -0 0 0 0 0 0 0 0 0 0 0 0 0 0 0 0 0
-0 0 0 0 -0 -0 -0 -0 -0 -0 -0 -0 -0 -0 -0 -0 0 0 0 0 0 0 0 0 0 0 -0 -0 -0 -0 0 0
0 0 0 0 0 -0 -0 -0 -0 -0 -0 -0 -0 0 0 0 0 0 0 0 0 0 0 0 0 0 0 -0 -0 -0 -0 0
0 0 0 0 0 0 0 0 0 0 0 0 0 0 0 0 0 0 0 0 0 0 0 0 0 0 0 0 -0 -0 -0 -0
0 0 0 0 0 0 0 0 0 0 0 0 0 0 0 0 0 0 0 0 0 0 0 0 0 0 0 0 0 0 -0 0
0 0 0 0 0 0 0 0 0 0 0 0 0 0 0 0 0 0 0 0 0 0 0 0 0 0 0 0 0 0 0 0
0 0 0 0 0 0 0 0 0 0 0 0 0 0 0 0 0 0 0 0 0 0 0 0 0 0 0 0 0 0 0 0
0 0 0 0 0 0 0 0 0 0 0 0 0 0 0 0 0 0 0 0 0 0 0 0 0 0 0 0 0 0 0 0
0 0 0 0 0 0 0 0 0 0 0 0 0 0 0 0 0 0 0 0 0 0 0 0 0 0 0 0 0 0 0 0
0 0 0 0 0 0 0 0 0 0 0 0 0 0 0 0 0 0 0 0 0 0 0 0 0 0 0 0 0 0 0 0
0 0 0 0 0 0 0 0 0 0 0 0 0 0 0 0 0 0 0 0 0 0 0 0 0 0 0 0 0 0 0 0
0 0 0 0 0 0 0 0 0 0 0 0 0 0 0 0 0 0 0 0 0 0 0 0 0 0 0 0 0 0 0 0
0 0 0 0 0 0 0 0 0 0 0 0 0 0 0 0 0 0 0 0 0 0 0 0 0 0 0 0 0 0 0 0
0 -0 0 0 0 0 0 0 1 1 1 0 0 0 0 0 0 0 0 0 0 0 1 1 1 0 1 0 0 1 1 1
0 0 0 0 0 0 0 0 0 1 -0 1 0 0 0 0 0 0 0 0 0 0 1 1 0 0 1 0 0 0 0 0
0 0 0 0 0 0 0 -0 -0 -0 -0 -0 -0 0 1 1 1 1 0 0 0 0 0 0 0 0 0 0 0 0 0 0
0 0 0 0 0 0 0 0 0 -0 -0 -0 0 0 0 0 0 0 0 0 0 0 1 0 0 0 0 0 0 0 0 0
0 0 0 0 0 0 0 0 0 0 0 0 0 0 0 0 0 0 0 0 0 0 0 0 0 0 0 0 0 0 0 0
Wind_Speed_500mb
59 56 51 45 39 35 31 26 23 21 22 25 28 30 30 27 23 18 15 13 12 11 10 9 9 8 6 5 6 7 8 8
59 57 51 44 39 34 31 29 26 21 19 20 23 26 27 25 21 18 14 10 9 9 8 7 6 5 5 5 6 8 11 15
58 55 50 44 37 33 31 29 25 22 18 16 16 18 21 22 21 19 15 12 9 7 6 5 3 3 3 5 6 8 10 14
58 55 49 43 37 33 31 29 26 22 19 16 15 16 18 21 22 21 18 16 13 10 8 5 4 3 3 4 5 8 10 12
52 49 47 42 37 34 31 29 29 26 24 20 18 16 16 19 22 23 21 18 15 14 12 9 8 8 7 6 7 10 9 12
51 48 45 41 37 32 30 32 34 32 28 24 23 19 18 19 21 22 24 22 20 19 16 14 13 14 13 11 12 13 13 12
52 48 42 37 34 32 33 34 34 33 31 29 26 22 21 22 23 23 25 25 25 24 21 20 19 19 19 17 18 19 18 19
45 44 40 38 35 33 34 33 33 33 31 29 27 24 23 24 27 26 25 27 27 26 25 25 23 24 25 24 23 24 24 24
49 43 41 39 36 35 34 33 31 30 29 29 26 26 26 26 26 27 27 28 30 28 30 28 25 21 20 22 26 25 21 21
38 35 35 41 40 35 33 33 32 31 29 25 26 26 26 27 25 27 29 31 32 31 30 29 28 24 20 21 22 24 26 23
29 32 27 42 43 41 32 34 35 33 28 31 29 25 24 25 25 29 29 32 34 34 33 33 30 32 31 31 29 33 31 27
31 24 17 27 44 39 36 34 35 33 32 28 21 22 24 23 21 21 26 29 25 27 33 34 36 40 41 39 39 33 30 31
43 40 34 26 38 42 42 40 43 43 40 29 26 23 17 23 23 27 30 31 25 27 36 37 37 41 47 47 48 42 40 37
34 35 35 39 43 40 39 39 44 46 37 26 25 32 28 33 34 33 40 39 38 40 47 47 44 45 49 49 48 46 43 40
33 34 36 42 38 46 53 48 44 34 23 25 33 39 36 41 41 39 45 50 49 50 56 58 54 50 51 55 55 51 48 41
37 39 39 36 34 43 50 51 51 55 26 33 38 40 36 44 46 46 48 52 52 52 54 52 55 56 57 60 60 61 56 49
45 40 36 31 33 35 41 43 52 53 56 61 50 55 38 38 42 45 46 48 47 51 59 56 52 58 60 63 59 55 59 56
44 40 37 29 24 25 27 29 31 36 45 51 55 47 44 44 46 49 52 58 57 57 55 55 54 55 61 62 63 53 32 17
35 31 31 29 29 27 21 20 24 26 31 31 30 31 33 36 42 48 50 55 53 51 57 58 59 61 47 54 60 64 54 43
Wind_Direction_500mb
171 167 167 166 169 175 175 173 166 154 146 154 159 163 165 165 166 166 160 149 139 133 135 133 128 139 171 201 225 226 247 273
174 172 169 169 172 176 182 183 179 170 158 157 163 170 174 177 179 179 177 171 158 152 152 146 142 156 182 203 222 240 252 266
176 173 172 172 176 180 186 188 187 185 179 170 166 174 184 188 191 192 193 196 193 190 182 172 174 184 202 220 227 239 254 266
178 174 174 177 183 185 188 190 194 196 198 195 188 184 190 198 204 205 206 210 210 215 220 226 233 251 268 255 244 245 250 264
177 177 179 181 187 190 192 192 196 204 207 210 215 209 206 207 211 215 216 221 226 230 235 240 253 262 266 274 271 264 260 273
177 181 183 188 193 193 196 199 200 205 208 214 224 228 231 225 220 220 225 227 233 240 246 251 257 265 270 270 267 265 258 267
179 181 186 192 196 197 203 206 207 210 213 218 225 231 240 247 240 230 229 232 236 243 246 254 259 264 268 264 264 265 262 248
182 185 190 194 196 202 206 209 212 216 220 226 232 237 240 244 251 248 246 247 248 254 259 266 267 268 266 265 262 263 261 251
188 188 195 200 204 208 209 211 210 217 224 231 236 241 247 252 255 259 261 259 258 260 264 264 267 272 276 271 270 258 261 249
189 191 203 208 209 210 217 218 219 216 218 226 230 237 245 254 262 268 268 264 265 267 271 268 260 266 266 271 279 270 258 255
198 201 208 217 216 218 219 224 224 223 216 221 229 242 251 264 267 270 272 272 269 275 277 275 270 268 268 272 276 276 265 249
205 201 218 235 224 225 229 229 231 232 227 231 234 236 251 268 279 280 278 280 289 282 275 277 277 278 277 278 279 292 280 258
220 225 240 236 226 226 224 228 227 220 231 243 265 274 274 269 272 275 278 282 293 286 281 276 280 284 284 284 281 279 277 280
219 229 232 235 233 228 224 226 232 237 246 257 283 277 274 272 271 276 279 284 283 285 284 283 278 285 291 291 283 281 277 276
201 201 223 231 232 242 231 245 249 250 268 263 285 294 293 293 290 281 282 283 283 283 281 283 281 285 293 294 290 283 283 278
201 210 223 235 239 251 261 248 254 257 281 297 312 311 295 291 288 292 293 293 294 293 291 290 286 283 289 297 298 289 282 282
205 211 220 235 236 254 252 259 254 267 281 295 293 295 293 287 290 288 290 290 292 289 284 287 291 282 283 294 295 288 289 279
205 210 222 228 241 244 246 256 267 275 285 294 288 282 276 277 278 279 286 280 280 276 279 283 282 277 282 288 289 284 272 250
208 219 229 230 233 245 266 269 274 281 298 309 308 298 291 280 276 277 276 278 277 279 275 275 275 278 285 287 285 281 275 269
Wind_Speed_850mb
59 56 51 45 39 35 31 26 23 21 22 25 28 30 30 27 23 18 15 13 12 11 10 9 9 8 6 5 6 7 8 8
59 57 51 44 39 34 31 29 26 21 19 20 23 26 27 25 21 18 14 10 9 9 8 7 6 5 5 5 6 8 11 15
58 55 50 44 37 33 31 29 25 22 18 16 16 18 21 22 21 19 15 12 9 7 6 5 3 3 3 5 6 8 10 14
58 55 49 43 37 33 31 29 26 22 19 16 15 16 18 21 22 21 18 16 13 10 8 5 4 3 3 4 5 8 10 12
52 49 47 42 37 34 31 29 29 26 24 20 18 16 16 19 22 23 21 18 15 14 12 9 8 8 7 6 7 10 9 12
51 48 45 41 37 32 30 32 34 32 28 24 23 19 18 19 21 22 24 22 20 19 16 14 13 14 13 11 12 13 13 12
52 48 42 37 34 32 33 34 34 33 31 29 26 22 21 22 23 23 25 25 25 24 21 20 19 19 19 17 18 19 18 19
45 44 40 38 35 33 34 33 33 33 31 29 27 24 23 24 27 26 25 27 27 26 25 25 23 24 25 24 23 24 24 24
49 43 41 39 36 35 34 33 31 30 29 29 26 26 26 26 26 27 27 28 30 28 30 28 25 21 20 22 26 25 21 21
38 35 35 41 40 35 33 33 32 31 29 25 26 26 26 27 25 27 29 31 32 31 30 29 28 24 20 21 22 24 26 23
29 32 27 42 43 41 32 34 35 33 28 31 29 25 24 25 25 29 29 32 34 34 33 33 30 32 31 31 29 33 31 27
31 24 17 27 44 39 36 34 35 33 32 28 21 22 24 23 21 21 26 29 25 27 33 34 36 40 41 39 39 33 30 31
43 40 34 26 38 42 42 40 43 43 40 29 26 23 17 23 23 27 30 31 25 27 36 37 37 41 47 47 48 42 40 37
34 35 35 39 43 40 39 39 44 46 37 26 25 32 28 33 34 33 40 39 38 40 47 47 44 45 49 49 48 46 43 40
33 34 36 42 38 46 53 48 44 34 23 25 33 39 36 41 41 39 45 50 49 50 56 58 54 50 51 55 55 51 48 41
37 39 39 36 34 43 50 51 51 55 26 33 38 40 36 44 46 46 48 52 52 52 54 52 55 56 57 60 60 61 56 49
45 40 36 31 33 35 41 43 52 53 56 61 50 55 38 38 42 45 46 48 47 51 59 56 52 58 60 63 59 55 59 56
44 40 37 29 24 25 27 29 31 36 45 51 55 47 44 44 46 49 52 58 57 57 55 55 54 55 61 62 63 53 32 17
35 31 31 29 29 27 21 20 24 26 31 31 30 31 33 36 42 48 50 55 53 51 57 58 59 61 47 54 60 64 54 43
Wind_Direction_850mb
171 167 167 166 169 175 175 173 166 154 146 154 159 163 165 165 166 166 160 149 139 133 135 133 128 139 171 201 225 226 247 273
174 172 169 169 172 176 182 183 179 170 158 157 163 170 174 177 179 179 177 171 158 152 152 146 142 156 182 203 222 240 252 266
176 173 172 172 176 180 186 188 187 185 179 170 166 174 184 188 191 192 193 196 193 190 182 172 174 184 202 220 227 239 254 266
178 174 174 177 183 185 188 190 194 196 198 195 188 184 190 198 204 205 206 210 210 215 220 226 233 251 268 255 244 245 250 264
177 177 179 181 187 190 192 192 196 204 207 210 215 209 206 207 211 215 216 221 226 230 235 240 253 262 266 274 271 264 260 273
177 181 183 188 193 193 196 199 200 205 208 214 224 228 231 225 220 220 225 227 233 240 246 251 257 265 270 270 267 265 258 267
179 181 186 192 196 197 203 206 207 210 213 218 225 231 240 247 240 230 229 232 236 243 246 254 259 264 268 264 264 265 262 248
182 185 190 194 196 202 206 209 212 216 220 226 232 237 240 244 251 248 246 247 248 254 259 266 267 268 266 265 262 263 261 251
188 188 195 200 204 208 209 211 210 217 224 231 236 241 247 252 255 259 261 259 258 260 264 264 267 272 276 271 270 258 261 249
189 191 203 208 209 210 217 218 219 216 218 226 230 237 245 254 262 268 268 264 265 267 271 268 260 266 266 271 279 270 258 255
198 201 208 217 216 218 219 224 224 223 216 221 229 242 251 264 267 270 272 272 269 275 277 275 270 268 268 272 276 276 265 249
205 201 218 235 224 225 229 229 231 232 227 231 234 236 251 268 279 280 278 280 289 282 275 277 277 278 277 278 279 292 280 258
220 225 240 236 226 226 224 228 227 220 231 243 265 274 274 269 272 275 278 282 293 286 281 276 280 284 284 284 281 279 277 280
219 229 232 235 233 228 224 226 232 237 246 257 283 277 274 272 271 276 279 284 283 285 284 283 278 285 291 291 283 281 277 276
201 201 223 231 232 242 231 245 249 250 268 263 285 294 293 293 290 281 282 283 283 283 281 283 281 285 293 294 290 283 283 278
201 210 223 235 239 251 261 248 254 257 281 297 312 311 295 291 288 292 293 293 294 293 291 290 286 283 289 297 298 289 282 282
205 211 220 235 236 254 252 259 254 267 281 295 293 295 293 287 290 288 290 290 292 289 284 287 291 282 283 294 295 288 289 279
205 210 222 228 241 244 246 256 267 275 285 294 288 282 276 277 278 279 286 280 280 276 279 283 282 277 282 288 289 284 272 250
208 219 229 230 233 245 266 269 274 281 298 309 308 298 291 280 276 277 276 278 277 279 275 275 275 278 285 287 285 281 275 269